FW1419 Weather Reports


Display with metric or nautical units.
time (UTC)temp
F
wind
direction
speed
MPH
gust
MPH
rain 1hr
in
rain 24hr
in
rain mn
in
humidity
%
barometer
mb
20260906024814 84 280 1.0 5.0 0.00 0.01 0.00 35 1012.7
20260906024326 85 258 2.0 5.0 0.00 0.01 0.00 35 1012.6
20260906023817 85 216 1.0 5.0 0.00 0.01 0.00 35 1012.6
20260906023328 85 217 1.0 8.0 0.00 0.01 0.00 35 1012.6
20260906022840 85 210 4.0 8.0 0.00 0.01 0.00 35 1012.5
20260906022331 85 228 3.0 8.0 0.00 0.01 0.00 36 1012.4
20260906021826 86 217 3.0 8.0 0.00 0.01 0.00 35 1012.4
20260906021316 86 212 4.0 8.0 0.00 0.01 0.00 35 1012.3
20260906020829 86 231 3.0 7.0 0.00 0.01 0.00 35 1012.2
20260906020339 87 222 3.0 7.0 0.00 0.01 0.00 34 1012.3
20260906015849 87 220 2.0 10.0 0.00 0.01 0.00 34 1012.3
20260906015319 87 212 4.0 10.0 0.00 0.01 0.00 33 1012.2
20260906014811 87 219 2.0 10.0 0.00 0.01 0.00 33 1012.3
20260906014323 87 230 5.0 10.0 0.00 0.01 0.00 33 1012.1
20260906013814 88 196 3.0 9.0 0.00 0.01 0.00 33 1012.1
20260906013327 88 220 4.0 9.0 0.00 0.01 0.00 33 1012.2
20260906012839 88 238 4.0 11.0 0.00 0.01 0.00 32 1012.2
20260906012311 88 234 5.0 11.0 0.00 0.01 0.00 32 1012.4
20260906011824 89 219 5.0 10.0 0.00 0.01 0.00 32 1012.3
20260906011315 89 221 5.0 9.0 0.00 0.01 0.00 31 1012.4
20260906010827 89 244 2.0 12.0 0.00 0.01 0.00 31 1012.3
20260906010319 89 195 4.0 12.0 0.00 0.01 0.00 31 1012.3
20260906005831 89 219 6.0 11.0 0.00 0.01 0.00 31 1012.3
20260906005323 89 226 6.0 11.0 0.00 0.01 0.00 31 1012.4
20260906004815 89 226 5.0 9.0 0.00 0.01 0.00 31 1012.4
20260906004326 89 257 6.0 9.0 0.00 0.01 0.00 31 1012.5
20260906003821 90 194 3.0 7.0 0.00 0.01 0.00 32 1012.3
20260906003312 89 217 1.0 9.0 0.00 0.01 0.00 32 1012.3
20260906002823 89 214 4.0 11.0 0.00 0.01 0.00 32 1012.3
20260906002315 90 224 5.0 10.0 0.00 0.01 0.00 31 1012.2
20260906001826 90 195 4.0 10.0 0.00 0.01 0.00 31 1012.3
20260906001316 90 185 2.0 11.0 0.00 0.01 0.00 32 1012.3
20260906000828 90 195 5.0 9.0 0.00 0.01 0.00 31 1012.3
20260906000340 90 234 6.0 10.0 0.00 0.01 0.00 31 1012.2
20260905235851 90 217 5.0 11.0 0.00 0.01 0.00 31 1012.2
20260905235321 90 193 5.0 11.0 0.00 0.01 0.00 31 1012.3
20260905234816 90 251 4.0 10.0 0.00 0.01 0.00 31 1012.3
20260905234326 90 240 3.0 9.0 0.00 0.01 0.00 30 1012.3
20260905233818 90 250 4.0 9.0 0.00 0.01 0.00 30 1012.4
20260905233329 91 231 3.0 12.0 0.00 0.01 0.00 30 1012.4
20260905232820 91 201 5.0 12.0 0.00 0.01 0.00 30 1012.4
20260905232312 91 191 3.0 10.0 0.00 0.01 0.00 30 1012.4
20260905231823 91 221 5.0 11.0 0.00 0.01 0.00 30 1012.4
20260905231314 91 195 4.0 11.0 0.00 0.01 0.00 30 1012.4
20260905230825 91 209 4.0 10.0 0.00 0.01 0.00 30 1012.4
20260905230320 91 259 3.0 9.0 0.00 0.01 0.00 30 1012.5
20260905225812 91 293 5.0 9.0 0.00 0.01 0.00 30 1012.5
20260905225323 91 245 3.0 10.0 0.00 0.01 0.00 30 1012.4
20260905224835 91 193 7.0 10.0 0.00 0.01 0.00 29 1012.5
20260905224325 91 215 5.0 9.0 0.00 0.01 0.00 29 1012.5
20260905223817 91 195 3.0 12.0 0.00 0.01 0.00 29 1012.6
20260905223327 91 248 5.0 12.0 0.00 0.01 0.00 29 1012.6
20260905222818 92 260 4.0 11.0 0.00 0.01 0.00 28 1012.6
20260905222330 92 255 5.0 11.0 0.00 0.01 0.00 28 1012.7
20260905221821 93 224 5.0 11.0 0.00 0.01 0.00 28 1012.6
20260905221314 93 238 5.0 11.0 0.00 0.01 0.00 28 1012.7
20260905220830 93 229 1.0 13.0 0.00 0.01 0.00 26 1012.7
20260905220322 92 219 8.0 13.0 0.00 0.01 0.00 26 1012.6
20260905215812 93 217 4.0 13.0 0.00 0.01 0.00 23 1012.7
20260905215345 93 311 3.0 13.0 0.00 0.01 0.00 23 1012.8
20260905214816 93 224 7.0 12.0 0.00 0.01 0.00 24 1012.9
20260905214328 93 192 0.0 13.0 0.00 0.01 0.00 24 1012.8
20260905213840 93 242 5.0 13.0 0.00 0.01 0.00 23 1012.9
20260905213330 93 133 2.0 10.0 0.00 0.01 0.00 23 1013.0
20260905212843 93 273 5.0 10.0 0.00 0.01 0.00 23 1013.0
20260905212313 93 244 2.0 9.0 0.00 0.01 0.00 23 1013.1
20260905211825 93 213 4.0 10.0 0.00 0.01 0.00 22 1013.2
20260905211341 93 228 3.0 13.0 0.00 0.01 0.00 22 1013.1
20260905210811 93 209 7.0 13.0 0.00 0.01 0.00 22 1013.2
20260905210323 92 221 1.0 10.0 0.00 0.01 0.00 23 1013.2
20260905205814 92 181 5.0 10.0 0.00 0.01 0.00 23 1013.3
20260905205326 92 212 4.0 11.0 0.00 0.01 0.00 23 1013.3
20260905204818 93 264 6.0 11.0 0.00 0.01 0.00 21 1013.4
20260905204329 92 269 3.0 10.0 0.00 0.01 0.00 23 1013.4
20260905203819 92 153 3.0 10.0 0.00 0.01 0.00 24 1013.4
20260905203314 92 278 3.0 10.0 0.00 0.01 0.00 22 1013.4
20260905202825 93 232 3.0 9.0 0.00 0.01 0.00 22 1013.5
20260905202315 93 272 3.0 7.0 0.00 0.01 0.00 21 1013.5
20260905201847 92 247 4.0 10.0 0.00 0.01 0.00 20 1013.6
20260905201317 92 223 2.0 13.0 0.00 0.01 0.00 20 1013.6
20260905200828 92 228 6.0 11.0 0.00 0.01 0.00 20 1013.7
20260905200318 92 200 3.0 9.0 0.00 0.01 0.00 22 1013.7
20260905195850 91 269 1.0 8.0 0.00 0.01 0.00 19 1013.7
20260905195321 91 55 2.0 8.0 0.00 0.01 0.00 18 1013.8
20260905194852 92 269 2.0 7.0 0.00 0.01 0.00 15 1013.9
20260905194322 92 237 4.0 7.0 0.00 0.01 0.00 16 1014.0
20260905193813 92 274 3.0 10.0 0.00 0.01 0.00 15 1014.1
20260905193328 91 210 5.0 10.0 0.00 0.01 0.00 16 1014.1
20260905192820 91 226 2.0 6.0 0.00 0.01 0.00 16 1014.1
20260905192311 90 319 1.0 6.0 0.00 0.01 0.00 17 1014.1
20260905191823 91 281 3.0 7.0 0.00 0.01 0.00 16 1014.2
20260905191313 90 238 3.0 7.0 0.00 0.01 0.00 16 1014.4
20260905190824 90 198 3.0 7.0 0.00 0.01 0.00 16 1014.4
20260905190313 89 197 0.0 6.0 0.00 0.01 0.00 17 1014.4
20260905185825 88 217 2.0 6.0 0.00 0.01 0.00 18 1014.4
20260905185315 88 308 3.0 6.0 0.00 0.01 0.00 18 1014.5
20260905184827 87 308 2.0 6.0 0.00 0.01 0.00 18 1014.5
20260905184322 87 68 1.0 5.0 0.00 0.01 0.00 19 1014.5
20260905183812 87 295 2.0 7.0 0.00 0.01 0.00 19 1014.5
20260905183323 87 313 3.0 6.0 0.00 0.01 0.00 19 1014.6
20260905182815 87 304 2.0 6.0 0.00 0.01 0.00 19 1014.6
20260905182326 87 256 1.0 7.0 0.00 0.01 0.00 19 1014.7
20260905181818 86 202 1.0 7.0 0.00 0.01 0.00 20 1014.7
20260905181329 86 63 1.0 8.0 0.00 0.01 0.00 21 1014.8
20260905180820 85 291 3.0 8.0 0.00 0.01 0.00 20 1014.8
20260905180351 84 323 2.0 5.0 0.00 0.01 0.00 21 1014.8
20260905175821 84 308 1.0 7.0 0.00 0.01 0.00 22 1014.8
20260905175316 83 310 2.0 7.0 0.00 0.01 0.00 22 1014.8
20260905174829 83 32 3.0 7.0 0.00 0.01 0.00 23 1014.8
20260905174319 82 344 2.0 6.0 0.00 0.01 0.00 23 1014.7
20260905173851 82 299 1.0 6.0 0.00 0.01 0.00 24 1014.6
20260905173322 81 285 2.0 4.0 0.00 0.01 0.00 24 1014.7
20260905172812 81 282 1.0 4.0 0.00 0.01 0.00 24 1014.6
20260905172323 81 326 2.0 4.0 0.00 0.01 0.00 24 1014.7
20260905171814 81 293 2.0 4.0 0.00 0.01 0.00 24 1014.7
20260905171324 80 304 1.0 4.0 0.00 0.01 0.00 24 1014.6
20260905170815 80 302 2.0 4.0 0.00 0.01 0.00 24 1014.5
20260905170330 79 20 2.0 5.0 0.00 0.01 0.00 26 1014.7
20260905165821 79 312 1.0 5.0 0.00 0.01 0.00 26 1014.7
20260905165312 78 25 1.0 5.0 0.00 0.01 0.00 27 1014.7
20260905164816 78 287 2.0 5.0 0.00 0.01 0.00 27 1014.7
20260905164328 78 290 2.0 5.0 0.00 0.01 0.00 27 1014.6
20260905163818 78 319 2.0 5.0 0.00 0.01 0.00 28 1014.6
20260905163329 77 309 1.0 4.0 0.00 0.01 0.00 29 1014.6
20260905162819 77 311 1.0 4.0 0.00 0.01 0.00 29 1014.6
20260905162330 77 34 1.0 3.0 0.00 0.01 0.00 29 1014.5
20260905161841 76 310 0.0 3.0 0.00 0.01 0.00 29 1014.6
20260905161315 76 32 0.0 3.0 0.00 0.01 0.00 29 1014.5
20260905160826 76 6 1.0 2.0 0.00 0.01 0.00 29 1014.5
20260905160318 76 235 1.0 1.0 0.00 0.01 0.00 28 1014.6
20260905155849 76 234 0.0 1.0 0.00 0.01 0.00 29 1014.5
20260905155319 74 235 0.0 1.0 0.00 0.01 0.00 31 1014.5
20260905154831 74 236 0.0 1.0 0.00 0.01 0.00 32 1014.5
20260905154322 73 236 0.0 1.0 0.00 0.01 0.00 33 1014.4
20260905153814 73 212 0.0 1.0 0.00 0.01 0.00 33 1014.4
20260905153324 72 212 0.0 1.0 0.00 0.01 0.00 34 1014.5
20260905152820 72 212 0.0 1.0 0.00 0.01 0.00 34 1014.4
20260905152311 71 212 0.0 1.0 0.01 0.01 0.00 35 1014.4
20260905151821 70 212 0.0 2.0 0.01 0.01 0.00 36 1014.3
20260905151312 71 212 0.0 2.0 0.01 0.01 0.00 34 1014.2
20260905150844 71 212 0.0 1.0 0.01 0.01 0.00 35 1014.2
20260905150316 70 212 0.0 0.0 0.01 0.01 0.00 38 1014.2
20260905145847 68 212 0.0 0.0 0.01 0.01 0.00 40 1014.2
20260905145338 68 212 0.0 0.0 0.01 0.01 0.00 41 1014.2
20260905144829 68 212 0.0 0.0 0.01 0.01 0.00 41 1014.1
20260905144341 66 212 0.0 0.0 0.01 0.01 0.00 45 1014.1
20260905143851 64 212 0.0 0.0 0.01 0.01 0.00 49 1014.0
20260905143325 62 212 0.0 0.0 0.01 0.01 0.01 50 1014.0
20260905142823 59 212 327.0 0.0 0.00 0.00 0.00 53 1013.9
20260905141325 59 150 0.0 0.0 0.00 0.00 0.00 53 1013.9
20260905140815 57 150 0.0 0.0 0.00 0.00 0.00 56 1013.9
20260905140347 56 150 0.0 0.0 0.00 0.00 0.00 57 1013.7
20260905135817 56 150 0.0 0.0 0.00 0.00 0.00 58 1013.8
20260905135329 55 150 0.0 0.0 0.00 0.00 0.00 59 1013.8
20260905134841 55 150 0.0 0.0 0.00 0.00 0.00 59 1013.8
20260905134311 55 150 0.0 0.0 0.00 0.00 0.00 60 1013.9
20260905133822 55 150 0.0 0.0 0.00 0.00 0.00 61 1013.8
20260905133314 55 150 0.0 0.0 0.00 0.00 0.00 61 1013.8
20260905132826 55 150 0.0 0.0 0.00 0.00 0.00 61 1013.8
20260905132320 55 150 0.0 0.0 0.00 0.00 0.00 61 1013.7
20260905131831 55 150 0.0 0.0 0.00 0.00 0.00 61 1013.7
20260905131323 55 150 0.0 0.0 0.00 0.00 0.00 61 1013.7
20260905130815 55 150 0.0 0.0 0.00 0.00 0.00 61 1013.8
20260905130326 55 150 0.0 0.0 0.00 0.00 0.00 61 1013.5
20260905125817 55 150 0.0 0.0 0.00 0.00 0.00 60 1013.5
20260905125329 55 150 0.0 0.0 0.00 0.00 0.00 61 1013.5
20260905124841 55 150 0.0 0.0 0.00 0.00 0.00 61 1013.4
20260905124333 55 150 0.0 0.0 0.00 0.00 0.00 61 1013.4
20260905123828 55 150 0.0 0.0 0.00 0.00 0.00 61 1013.4
20260905123318 55 150 0.0 0.0 0.00 0.00 0.00 62 1013.2
20260905122850 55 150 0.0 0.0 0.00 0.00 0.00 62 1013.2
20260905122320 55 150 0.0 0.0 0.00 0.00 0.00 62 1013.2
20260905121811 55 150 0.0 0.0 0.00 0.00 0.00 61 1013.2
20260905121323 56 150 0.0 0.0 0.00 0.00 0.00 61 1013.2
20260905120813 56 150 0.0 0.0 0.00 0.00 0.00 60 1013.2
20260905120325 56 150 0.0 0.0 0.00 0.00 0.00 60 1013.2
20260905115816 56 150 0.0 0.0 0.00 0.00 0.00 60 1013.2
20260905115324 56 150 0.0 0.0 0.00 0.00 0.00 60 1013.3
20260905114821 56 150 0.0 0.0 0.00 0.00 0.00 59 1013.2
20260905114333 57 150 0.0 0.0 0.00 0.00 0.00 58 1013.1
20260905113824 57 150 0.0 0.0 0.00 0.00 0.00 58 1013.1
20260905113315 57 150 0.0 0.0 0.00 0.00 0.00 58 1013.1
20260905112826 57 150 0.0 0.0 0.00 0.00 0.00 58 1013.1
20260905112316 57 150 0.0 0.0 0.00 0.00 0.00 59 1013.2
20260905111848 57 150 0.0 0.0 0.00 0.00 0.00 59 1013.1
20260905111338 57 150 0.0 0.0 0.00 0.00 0.00 59 1013.3
20260905110829 57 150 0.0 0.0 0.00 0.00 0.00 59 1013.2
20260905110322 57 150 0.0 0.0 0.00 0.00 0.00 59 1013.3
20260905105818 57 150 0.0 0.0 0.00 0.00 0.00 58 1013.3
20260905105330 58 150 0.0 0.0 0.00 0.00 0.00 58 1013.3
20260905104819 58 150 0.0 0.0 0.00 0.00 0.00 58 1013.3
20260905104331 58 150 0.0 0.0 0.00 0.00 0.00 59 1013.5
20260905103823 57 150 0.0 0.0 0.00 0.00 0.00 59 1013.5
20260905103314 57 150 0.0 0.0 0.00 0.00 0.00 59 1013.7
20260905102845 57 150 0.0 0.0 0.00 0.00 0.00 58 1013.5
20260905102315 57 150 0.0 0.0 0.00 0.00 0.00 58 1013.6
20260905101826 57 150 0.0 0.0 0.00 0.00 0.00 57 1013.6
20260905101317 58 150 0.0 0.0 0.00 0.00 0.00 57 1013.5
20260905100811 58 150 0.0 0.0 0.00 0.00 0.00 57 1013.4
20260905100322 58 150 0.0 0.0 0.00 0.00 0.00 57 1013.4
20260905095814 58 150 0.0 0.0 0.00 0.00 0.00 57 1013.4
20260905095325 58 150 0.0 0.0 0.00 0.00 0.00 56 1013.5
20260905094817 59 150 0.0 0.0 0.00 0.00 0.00 56 1013.5
20260905094326 59 150 0.0 0.0 0.00 0.00 0.00 55 1013.5
20260905093817 59 150 0.0 0.0 0.00 0.00 0.00 55 1013.4
20260905093330 59 150 0.0 0.0 0.00 0.00 0.00 56 1013.5
20260905092821 59 150 0.0 0.0 0.00 0.00 0.00 56 1013.5
20260905092315 59 150 0.0 0.0 0.00 0.00 0.00 55 1013.4
20260905091827 60 150 0.0 0.0 0.00 0.00 0.00 54 1013.4
20260905091318 60 150 0.0 0.0 0.00 0.00 0.00 54 1013.4
20260905090830 60 150 0.0 0.0 0.00 0.00 0.00 54 1013.4
20260905090320 60 150 0.0 0.0 0.00 0.00 0.00 54 1013.5
20260905085833 61 150 0.0 0.0 0.00 0.00 0.00 53 1013.5
20260905085322 60 150 0.0 0.0 0.00 0.00 0.00 53 1013.5
20260905084813 61 150 0.0 0.0 0.00 0.00 0.00 53 1013.7
20260905084324 61 150 0.0 0.0 0.00 0.00 0.00 53 1013.5
20260905083815 61 150 0.0 0.0 0.00 0.00 0.00 52 1013.5
20260905083346 61 150 0.0 0.0 0.00 0.00 0.00 51 1013.6
20260905082820 61 150 0.0 0.0 0.00 0.00 0.00 52 1013.7
20260905082311 61 150 0.0 0.0 0.00 0.00 0.00 51 1013.8
20260905081823 61 150 0.0 0.0 0.00 0.00 0.00 52 1014.0
20260905081314 62 150 0.0 0.0 0.00 0.00 0.00 51 1013.9
20260905080826 62 150 0.0 0.0 0.00 0.00 0.00 50 1014.0
20260905080317 62 150 0.0 0.0 0.00 0.00 0.00 50 1014.0
20260905075829 62 150 0.0 0.0 0.00 0.00 0.00 50 1014.0
20260905075320 62 150 0.0 0.0 0.00 0.00 0.00 50 1014.1
20260905074816 62 150 0.0 0.0 0.00 0.00 0.00 50 1014.1
20260905074329 62 150 0.0 0.0 0.00 0.00 0.00 51 1014.1
20260905073840 62 150 0.0 0.0 0.00 0.00 0.00 51 1014.0
20260905073330 62 150 0.0 0.0 0.00 0.00 0.00 51 1014.0
20260905072823 62 150 0.0 0.0 0.00 0.00 0.00 51 1014.0
20260905072314 63 150 0.0 0.0 0.00 0.00 0.00 50 1014.0
20260905071825 63 150 0.0 0.0 0.00 0.00 0.00 50 1013.9
20260905071316 63 150 0.0 0.0 0.00 0.00 0.00 50 1013.9
20260905070848 63 150 0.0 0.0 0.00 0.00 0.00 50 1013.9
20260905070318 63 150 0.0 0.0 0.00 0.00 0.00 49 1013.8
20260905065812 63 150 0.0 0.0 0.00 0.00 0.00 49 1013.8
20260905065323 63 150 0.0 0.0 0.00 0.00 0.00 48 1013.8
20260905064815 64 150 0.0 0.0 0.00 0.00 0.00 48 1013.8
20260905064346 64 150 0.0 0.0 0.00 0.00 0.00 48 1013.7
20260905063837 64 150 0.0 0.0 0.00 0.00 0.00 48 1013.7
20260905063327 64 150 0.0 0.0 0.00 0.00 0.00 48 1013.8
20260905062820 64 150 0.0 0.0 0.00 0.00 0.00 49 1013.7
20260905062311 64 150 0.0 0.0 0.00 0.00 0.00 49 1013.7
20260905061823 64 150 0.0 0.0 0.00 0.00 0.00 49 1013.7
20260905061314 64 150 0.0 0.0 0.00 0.00 0.00 48 1013.5
20260905060830 64 150 0.0 0.0 0.00 0.00 0.00 48 1013.6
20260905060321 65 164 0.0 0.0 0.00 0.00 0.00 47 1013.4
20260905055812 65 192 0.0 0.0 0.00 0.00 0.00 48 1013.4
20260905055324 65 192 0.0 0.0 0.00 0.00 0.00 47 1013.4
20260905054836 66 192 0.0 0.0 0.00 0.00 0.00 46 1013.4
20260905054327 66 192 0.0 0.0 0.00 0.00 0.00 45 1013.5
20260905053817 66 192 0.0 0.0 0.00 0.00 0.00 43 1013.4
20260905053330 67 192 0.0 0.0 0.00 0.00 0.00 42 1013.5
20260905052841 67 192 0.0 0.0 0.00 0.00 0.00 41 1013.5
20260905052316 68 192 0.0 0.0 0.00 0.00 0.00 38 1013.5
20260905051828 68 192 0.0 0.0 0.00 0.00 0.00 37 1013.5
20260905051319 68 192 0.0 0.0 0.00 0.00 0.00 36 1013.6
20260905050851 69 192 0.0 0.0 0.00 0.00 0.00 35 1013.5
20260905050321 69 192 0.0 0.0 0.00 0.00 0.00 35 1013.4
20260905045813 69 192 0.0 0.0 0.00 0.00 0.00 35 1013.5
20260905045325 69 192 0.0 0.0 0.00 0.00 0.00 34 1013.4
20260905044817 69 192 0.0 0.0 0.00 0.00 0.00 33 1013.5
20260905044330 69 216 0.0 0.0 0.00 0.00 0.00 33 1013.5
20260905043824 69 224 0.0 0.0 0.00 0.00 0.00 34 1013.4
20260905043315 70 224 0.0 0.0 0.00 0.00 0.00 32 1013.4
20260905042827 70 224 0.0 0.0 0.00 0.00 0.00 33 1013.5
20260905042339 70 224 0.0 0.0 0.00 0.00 0.00 36 1013.5
20260905041829 71 224 0.0 0.0 0.00 0.00 0.00 36 1013.4
20260905041321 71 224 0.0 0.0 0.00 0.00 0.00 36 1013.4
20260905040813 72 224 0.0 0.0 0.00 0.00 0.00 36 1013.4
20260905040325 72 224 0.0 0.0 0.00 0.00 0.00 35 1013.4
20260905035816 72 224 0.0 2.0 0.00 0.00 0.00 34 1013.2
20260905035311 72 229 1.0 2.0 0.00 0.00 0.00 35 1013.1
20260905034822 72 205 1.0 2.0 0.00 0.00 0.00 34 1013.1
20260905034314 72 271 0.0 0.0 0.00 0.00 0.00 34 1013.1
20260905033846 72 271 0.0 0.0 0.00 0.00 0.00 33 1013.1
20260905033316 73 271 0.0 1.0 0.00 0.00 0.00 33 1013.1
20260905032828 73 271 0.0 1.0 0.00 0.00 0.00 33 1013.1
20260905032319 73 271 0.0 1.0 0.00 0.00 0.00 33 1013.0
20260905031830 73 271 0.0 1.0 0.00 0.00 0.00 33 1012.9
20260905031321 74 271 0.0 1.0 0.00 0.00 0.00 33 1012.8
20260905030836 74 271 0.0 0.0 0.00 0.00 0.00 32 1012.8
20260905030325 74 271 0.0 1.0 0.00 0.00 0.00 32 1012.7
20260905025838 75 271 0.0 1.0 0.00 0.00 0.00 32 1012.6
20260905025329 75 271 0.0 1.0 0.00 0.00 0.00 31 1012.5